Overview Statistics Trail Chart Weather Telemetry Raw packets
 

This is the latest recevied weather packets stored in our database for station/object IR3ZXT. If no packets are shown the sender has not sent any weather packets the latest 10 day(s).

<< 125 126 127 128 129 130 131 >>
Time Temp. Humidity Pressure Rain* Wind** Luminosity Snow
1787764518 15.56° C 81% 869.2 hPa 0 mm - - -
1787764218 16.11° C 80% 869 hPa 0 mm - - -
1787763918 16.11° C 79% 868.7 hPa 0 mm - - -
1787763618 16.67° C 79% 868.8 hPa 0 mm - - -
1787763318 16.67° C 79% 869 hPa 0 mm - - -
1787763018 16.67° C 80% 869.2 hPa 0 mm - - -
1787762718 16.11° C 81% 869.4 hPa 0 mm - - -
1787762420 16.11° C 81% 869.2 hPa 0 mm - - -
1787762118 15.56° C 81% 869.4 hPa 0 mm - - -
1787761818 16.11° C 81% 869.3 hPa 0 mm - - -
1787761518 16.11° C 80% 869.4 hPa 0 mm - - -
1787761220 16.67° C 79% 869.5 hPa 0 mm - - -
1787760918 16.67° C 78% 869.5 hPa 0 mm - - -
1787760618 16.67° C 78% 869.5 hPa 0 mm - - -
1787760363 17.22° C 77% 869.4 hPa 0 mm - - -
1787760318 17.22° C 77% 869.4 hPa 0 mm - - -
1787760018 17.22° C 77% 869.4 hPa 0 mm - - -
1787759718 17.22° C 76% 869.3 hPa 0 mm - - -
1787759418 17.78° C 75% 869.4 hPa 0 mm - - -
1787759118 18.33° C 74% 869.4 hPa 0 mm - - -
1787758818 18.33° C 74% 869.5 hPa 0 mm - - -
1787758549 18.89° C 74% 869.5 hPa 0 mm - - -
1787758518 18.89° C 74% 869.5 hPa 0 mm - - -
1787758218 18.89° C 75% 869.3 hPa 0 mm - - -
1787757918 18.89° C 75% 869.2 hPa 0 mm - - -

* Rain latest hour (hover to see other rain measurements)
** Current wind speed in m/s (hover to see current wind gust speed)